カタログに戻る

FENGYUN 1C

運用中気象SSO
NORAD 25730·PAYLOAD·🇨🇳 China

打ち上げ May 10, 1999 から Taiyuan Satellite Launch Center

Loading…

次のパス (今後24時間)

TLE

最新Source: Space-Track

元期: Sep 14, 2026, 04:53 UTC

1 25730U 99025A   26257.20386953  .00001632  00000-0  68576-3 0  9997
2 25730  98.8586 331.8957 0012843   8.2677 351.8712 14.27247752410651

AllMySatでFENGYUN 1Cをリアルタイム追跡

Download on the App Store